Orbital Elements at Epoch 2459000.5 (2020-May-31.0) TDB
Reference: JPL 12 (heliocentric ecliptic J2000)
Element | Value | Uncertainty (1-sigma) | Units |
e | .2098440273937417 | 5.4606e-08 | |
a | 2.6255428070419 | 1.5712e-08 | au |
q | 2.074588330317559 | 1.4624e-07 | au |
i | 1.618320318778292 | 5.6549e-06 | deg |
node | 332.1584860792469 | 0.00023427 | deg |
peri | 80.69019659779757 | 0.00023514 | deg |
M | 37.78706893897676 | 1.5076e-05 | deg |
tp | 2458837.394807473309 (2019-Dec-19.89480747) | 6.5189e-05 | TDB |
period | 1553.914366960656 4.25 | 1.3949e-05 3.819e-08 | d yr |
n | .231672997981307 | 2.0796e-09 | deg/d |
Q | 3.176497283766242 | 1.9009e-08 | au |
|
| | Orbit Determination Parameters
Additional Information
|